Weather History for KD50 - February, 2013

Change the Weather History Date:

Sunday, February 10, 2013

  Actual Average (KISN) Record (KISN)
Temperature  
Mean Temperature 24 °F 15 °F  
Max Temperature 30 °F 26 °F 51 °F (1961)
Min Temperature 17 °F 5 °F -36 °F (1901)
Degree Days  
Heating Degree Days 42 50  
Month to date heating degree days 510  
Since 1 July heating degree days 5931  
Cooling Degree Days 0 0  
Month to date cooling degree days 0  
Year to date cooling degree days 0  
Moisture  
Dew Point 21 °F    
Average Humidity 94    
Maximum Humidity 100    
Minimum Humidity 86    
Precipitation  
Precipitation 0.10 in 0.01 in 0.32 in (2009)
Month to date precipitation 0.12  
Year to date precipitation 0.71  
Sea Level Pressure  
Sea Level Pressure 29.89 in    
Wind  
Wind Speed 16 mph (NW)    
Max Wind Speed 25 mph    
Max Gust Speed 33 mph    
Visibility 8 miles    
Events Rain , Snow    
T = Trace of Precipitation, MM = Missing Value Source: NWS Daily Summary

Daily Weather History Graph

Daily Weather History Graph

Search for Another Location

Airport or City:

Trip Planner

Search our weather history database for the weather conditions in past years. The results will help you decide how hot, cold, wet, or windy it might be!

Date:

Astronomy

Feb. 10, 2013 Rise Set
Actual Time 8:09 AM CST 6:06 PM CST
Civil Twilight 7:36 AM CST 6:39 PM CST
Nautical Twilight 6:59 AM CST 7:16 PM CST
Astronomical Twilight 6:22 AM CST 7:53 PM CST
Moon 7:53 AM CST (2/10) 7:08 PM CST (2/10)
Length of Visible Light 11h 02m
Length of Day
9h 56m
New Moon, 0% of the Moon is Illuminated
Feb 10
New Moon
Feb 17
First Quarter
Feb 25
Full
Mar 4
Last Quarter
Mar 11
New

Hourly Weather History & Observations

Time (CST) Temp. Windchill Dew Point Humidity Pressure Visibility Wind Dir Wind Speed Gust Speed Precip Events Conditions
12:15 AM 28.4 °F 20.4 °F 26.6 °F 93% 29.78 in 10.0 mi West 8.1 mph - N/A   Overcast
12:35 AM 28.4 °F 19.1 °F 26.6 °F 93% 29.78 in 10.0 mi West 10.4 mph - N/A   Overcast
12:55 AM 28.4 °F 18.5 °F 26.6 °F 93% 29.78 in 10.0 mi West 11.5 mph - N/A   Overcast
1:15 AM 26.6 °F 16.2 °F 26.6 °F 100% 29.78 in 10.0 mi West 11.5 mph - N/A   Overcast
1:35 AM 28.4 °F 18.5 °F 26.6 °F 93% 29.78 in 10.0 mi West 11.5 mph - N/A   Overcast
1:55 AM 28.4 °F 18.5 °F 26.6 °F 93% 29.79 in 10.0 mi WNW 11.5 mph - N/A   Overcast
2:15 AM 26.6 °F 19.1 °F 26.6 °F 100% 29.79 in 10.0 mi West 6.9 mph - N/A   Overcast
2:35 AM 28.4 °F 20.4 °F 26.6 °F 93% 29.79 in 10.0 mi West 8.1 mph - N/A   Overcast
2:55 AM 28.4 °F 22.2 °F 26.6 °F 93% 29.80 in 10.0 mi West 5.8 mph - N/A   Overcast
3:15 AM 28.4 °F 22.2 °F 26.6 °F 93% 29.80 in 10.0 mi West 5.8 mph - N/A   Overcast
3:35 AM 28.4 °F 19.7 °F 28.4 °F 100% 29.80 in 9.0 mi West 9.2 mph - N/A   Overcast
3:55 AM 28.4 °F 19.7 °F 28.4 °F 100% 29.80 in 7.0 mi WNW 9.2 mph - N/A   Overcast
4:15 AM 28.4 °F 19.7 °F 28.4 °F 100% 29.80 in 10.0 mi NW 9.2 mph - N/A   Overcast
4:35 AM 30.2 °F 19.3 °F 28.4 °F 93% 29.79 in 10.0 mi NW 15.0 mph - N/A   Overcast
4:55 AM 28.4 °F 16.2 °F 28.4 °F 100% 29.79 in 8.0 mi NW 17.3 mph 21.9 mph N/A   Overcast
5:15 AM 28.4 °F 15.1 °F 28.4 °F 100% 29.80 in 3.0 mi NW 20.7 mph - N/A   Overcast
5:35 AM 28.4 °F 15.4 °F 28.4 °F 100% 29.80 in 8.0 mi NW 19.6 mph - N/A   Overcast
5:55 AM 26.6 °F 12.0 °F 26.6 °F 100% 29.80 in 10.0 mi NW 23.0 mph - N/A   Overcast
6:15 AM 26.6 °F 12.0 °F 26.6 °F 100% 29.81 in 9.0 mi NW 23.0 mph 28.8 mph N/A Rain Light Freezing Rain
6:35 AM 26.6 °F 12.0 °F 24.8 °F 93% 29.81 in 10.0 mi NW 23.0 mph 28.8 mph N/A   Overcast
6:55 AM 26.6 °F 11.7 °F 24.8 °F 93% 29.81 in 10.0 mi NW 24.2 mph - N/A   Overcast
7:15 AM 26.6 °F 12.0 °F 24.8 °F 93% 29.81 in 10.0 mi NW 23.0 mph 28.8 mph N/A   Overcast
7:35 AM 24.8 °F 9.6 °F 24.8 °F 100% 29.81 in 10.0 mi NW 23.0 mph 29.9 mph N/A   Overcast
7:55 AM 24.8 °F 9.6 °F 24.8 °F 100% 29.82 in 10.0 mi NW 23.0 mph 28.8 mph N/A   Overcast
8:15 AM 24.8 °F 9.6 °F 23.0 °F 93% 29.83 in 10.0 mi NW 23.0 mph - N/A   Overcast
8:35 AM 24.8 °F 9.6 °F 23.0 °F 93% 29.84 in 10.0 mi NNW 23.0 mph - N/A   Overcast
8:55 AM 24.8 °F 10.3 °F 23.0 °F 93% 29.85 in 8.0 mi NNW 20.7 mph 27.6 mph N/A   Overcast
9:15 AM 23.0 °F 7.6 °F 23.0 °F 100% 29.85 in 10.0 mi NW 21.9 mph 28.8 mph N/A   Overcast
9:35 AM 23.0 °F 6.9 °F 21.2 °F 93% 29.86 in 10.0 mi NW 24.2 mph 33.4 mph N/A   Overcast
9:55 AM 23.0 °F 6.9 °F 21.2 °F 93% 29.86 in 10.0 mi NNW 24.2 mph 32.2 mph N/A   Overcast
10:15 AM 23.0 °F 7.6 °F 19.4 °F 86% 29.87 in 10.0 mi NNW 21.9 mph 26.5 mph N/A   Overcast
10:35 AM 23.0 °F 7.6 °F 19.4 °F 86% 29.87 in 10.0 mi NNW 21.9 mph 28.8 mph N/A Snow Light Snow
10:55 AM 21.2 °F 4.9 °F 19.4 °F 93% 29.88 in 9.0 mi NW 23.0 mph 29.9 mph N/A Snow Light Snow
11:15 AM 21.2 °F 4.9 °F 19.4 °F 93% 29.88 in 10.0 mi NW 23.0 mph - N/A   Overcast
11:35 AM 19.4 °F 2.5 °F 17.6 °F 93% 29.89 in 10.0 mi NW 23.0 mph 28.8 mph N/A Snow Light Snow
12:15 PM 19.4 °F 2.1 °F 17.6 °F 93% 29.90 in 4.0 mi NNW 24.2 mph - N/A Snow Light Snow
12:35 PM 19.4 °F 1.8 °F 15.8 °F 86% 29.90 in 3.0 mi NW 25.3 mph 28.8 mph 0.01 in Snow Light Snow
12:55 PM 17.6 °F -0.3 °F 15.8 °F 93% 29.90 in 2.5 mi NW 24.2 mph 28.8 mph 0.02 in Snow Light Snow
1:15 PM 17.6 °F -0.3 °F 15.8 °F 93% 29.89 in 1.5 mi NW 24.2 mph - N/A Snow Light Snow
1:35 PM 17.6 °F 0.9 °F 15.8 °F 93% 29.89 in 1.8 mi NW 20.7 mph 28.8 mph 0.02 in Snow Light Snow
1:55 PM 17.6 °F 0.9 °F 15.8 °F 93% 29.90 in 3.0 mi NW 20.7 mph 26.5 mph 0.03 in Snow Light Snow
2:15 PM 17.6 °F 0.9 °F 15.8 °F 93% 29.89 in 3.0 mi NW 20.7 mph - N/A Rain Light Freezing Rain
2:35 PM 19.4 °F 3.2 °F 17.6 °F 93% 29.88 in 4.0 mi NW 20.7 mph 26.5 mph N/A Snow Light Snow
2:55 PM 19.4 °F 2.8 °F 17.6 °F 93% 29.89 in 7.0 mi NW 21.9 mph 26.5 mph N/A Snow Light Snow
3:15 PM 19.4 °F 3.2 °F 17.6 °F 93% 29.89 in 7.0 mi NW 20.7 mph 25.3 mph N/A   Overcast
3:35 PM 19.4 °F 3.2 °F 17.6 °F 93% 29.90 in 9.0 mi NNW 20.7 mph - N/A Snow Light Snow
3:55 PM 19.4 °F 4.5 °F 17.6 °F 93% 29.91 in 8.0 mi NNW 17.3 mph 24.2 mph N/A Snow Light Snow
4:15 PM 19.4 °F 3.6 °F 17.6 °F 93% 29.91 in 7.0 mi NNW 19.6 mph - N/A Snow Light Snow
4:35 PM 19.4 °F 4.1 °F 17.6 °F 93% 29.92 in 7.0 mi NNW 18.4 mph - N/A   Overcast
4:55 PM 19.4 °F 2.8 °F 17.6 °F 93% 29.93 in 8.0 mi North 21.9 mph - N/A   Overcast
5:15 PM 19.4 °F 5.0 °F 15.8 °F 86% 29.94 in 9.0 mi North 16.1 mph - N/A Snow Light Snow
5:35 PM 19.4 °F 4.5 °F 15.8 °F 86% 29.95 in 9.0 mi North 17.3 mph - N/A Snow Light Snow
5:55 PM 19.4 °F 6.0 °F 15.8 °F 86% 29.96 in 5.0 mi North 13.8 mph - N/A Rain Light Freezing Rain
6:15 PM 19.4 °F 5.5 °F 17.6 °F 93% 29.96 in 8.0 mi North 15.0 mph - N/A Rain Light Freezing Rain
6:35 PM 19.4 °F 5.5 °F 17.6 °F 93% 29.96 in 5.0 mi NNW 15.0 mph - 0.01 in Snow Light Snow
6:55 PM 19.4 °F 6.0 °F 17.6 °F 93% 29.96 in 5.0 mi NNW 13.8 mph - 0.02 in Snow Light Snow
7:15 PM 19.4 °F 5.0 °F 17.6 °F 93% 29.96 in 8.0 mi NNW 16.1 mph - N/A Snow Light Snow
7:35 PM 19.4 °F 4.1 °F 17.6 °F 93% 29.97 in 7.0 mi NNW 18.4 mph - 0.02 in Snow Light Snow
7:55 PM 19.4 °F 3.6 °F 17.6 °F 93% 29.98 in 8.0 mi NNW 19.6 mph - 0.02 in Snow Light Snow
8:15 PM 19.4 °F 4.5 °F 17.6 °F 93% 29.99 in 7.0 mi NNW 17.3 mph - N/A Snow Light Snow
8:35 PM 17.6 °F 1.3 °F 15.8 °F 93% 29.99 in 7.0 mi NNW 19.6 mph - 0.01 in Snow Light Snow
8:55 PM 17.6 °F 1.3 °F 15.8 °F 93% 30.00 in 10.0 mi North 19.6 mph - 0.01 in   Overcast
9:15 PM 17.6 °F 2.2 °F 15.8 °F 93% 30.00 in 10.0 mi North 17.3 mph - N/A   Overcast
9:35 PM 17.6 °F 1.7 °F 15.8 °F 93% 30.00 in 10.0 mi North 18.4 mph - N/A Rain Light Freezing Rain
9:55 PM 17.6 °F 1.7 °F 15.8 °F 93% 30.01 in 10.0 mi North 18.4 mph - N/A   Overcast
10:15 PM 17.6 °F 3.2 °F 15.8 °F 93% 30.01 in 10.0 mi NNW 15.0 mph - N/A Snow Light Snow
10:35 PM 17.6 °F 1.7 °F 15.8 °F 93% 30.02 in 10.0 mi NNW 18.4 mph - N/A Snow Light Snow
10:55 PM 17.6 °F 2.2 °F 15.8 °F 93% 30.02 in 10.0 mi North 17.3 mph - N/A Snow Light Snow
11:15 PM 17.6 °F 2.2 °F 15.8 °F 93% 30.02 in 9.0 mi North 17.3 mph 25.3 mph N/A Snow Light Snow
11:35 PM 17.6 °F 2.7 °F 15.8 °F 93% 30.02 in 10.0 mi North 16.1 mph - N/A Snow Light Snow
11:55 PM 17.6 °F 3.2 °F 14.0 °F 86% 30.02 in 10.0 mi North 15.0 mph - N/A   Overcast